Regional Weather Roundup
Issued by NWS

Home | Current Version | Previous Version | Graphics & Text | Print | Product List | Glossary On
Versions: 1 2 3 4 5 6 7 8 9 10 11 12 13 14 15 16 17 18 19 20 21 22 23 24 25 26 27 28 29 30 31 32 33 34 35 36 37 38 39 40 41 42 43 44 45 46 47 48 49 50
000
ASUS45 KTFX 191504
RWRMT
MONTANA HOURLY WEATHER ROUNDUP
NATIONAL WEATHER SERVICE GREAT FALLS MT
904 AM MDT FRI SEP 19 2014

NOTE: "FAIR" INDICATES FEW OR NO CLOUDS BELOW 12000 FEET WITH NO
SIGNIFICANT WEATHER AND/OR OBSTRUCTIONS TO VISIBILITY.

* THESE STATIONS ARE NOT UNDER NWS QUALITY CONTROL. THEY DO NOT
   REPORT WEATHER SUCH AS PRECIPITATION OR FOG.

MTZ001>007-043-191600-
WEST OF THE DIVIDE
CITY           SKY/WX    TMP DP  RH WIND       PRES   REMARKS
KALISPELL      CLOUDY    59  54  84 S3        29.94R
MISSOULA       PTSUNNY   64  46  52 NW8       30.02R
BUTTE          CLOUDY    52  45  77 CALM      30.08R
MULLAN PASS    CLOUDY    45  45 100 VRB6      30.11R
* ESSEX        N/A       54  52  93 E1         N/A
* LINCOLN      N/A       58  43  58 SW5G11     N/A
* LOOKOUT PASS N/A       52  46  80 N1         N/A
* POLSON       N/A       59  47  65 S2         N/A
* RONAN APT    CLOUDY    63  46  54 N/A        N/A
* SEELEY LAKE  N/A       60  45  58 W5G10      N/A
* THOMP F APT  PTCLDY    47  44  89 NE2G7      N/A
$$

MTZ008-052>055-191600-
SOUTHWEST MONTANA
CITY           SKY/WX    TMP DP  RH WIND       PRES   REMARKS
BOZEMAN        PTCLDY    55  48  77 S6        30.01R
DILLON         SUNNY     57  43  60 S12       30.08R
W YELLOWSTONE  FOG       41  41 100 CALM      30.15R VSB M1/4
* THREE FORKS  PTCLDY    55  37  51 N/A        N/A
* BOULDER HILL N/A       55  39  55 S7G12      N/A
* MONIDA PASS  N/A       48  47  96 NE2        N/A
* WHITEHALL    N/A       59  44  58 W7G13      N/A
* WISE RIVER   N/A       55  42  62 W8G14      N/A
$$

MTZ009>010-012-014-046-048-049-054-191600-
EAST SLOPES AND CENTRAL MONTANA
CITY           SKY/WX    TMP DP  RH WIND       PRES   REMARKS
CUT BANK       CLOUDY    61  45  56 W8        29.86R
GREAT FALLS    CLOUDY    63  45  52 SW16      29.88R
HELENA         PTSUNNY   64  45  50 NW7       29.98R
* CONRAD       PTSUNNY   61  52  72 SW8        N/A
* EAST GLACIER N/A       57  43  60 W20G28     N/A
* MONARCH      N/A       57  39  51 W18G26     N/A
* PENDROY      N/A       59  49  70 NW7        N/A
* ROGERS PASS  N/A       54  42  64 SE19G40    N/A
* SAINT MARY   N/A       57  44  62 S8G21      N/A
* SWEET GRASS  N/A       59  43  56 W13G20     N/A
$$

MTZ011-013-016-021-035-040-045-047-050-051-191600-
NORTH CENTRAL MONTANA
CITY           SKY/WX    TMP DP  RH WIND       PRES   REMARKS
HAVRE          PTSUNNY   63  48  58 SW17      29.77R
LEWISTOWN      PTCLDY    64  45  50 W16       29.89R
* CHESTER      N/A       59  46  62 NW6        N/A
* DENTON       N/A       63  46  54 W16G21     N/A
* GEYSER       N/A       60  46  60 SW13       N/A
* JUDITH GAP   N/A       63  48  58 W17        N/A
* LOMA         N/A       61  47  60 W10        N/A
$$

MTZ017>020-022>027-061-062-191600-
NORTHEAST MONTANA
CITY           SKY/WX    TMP DP  RH WIND       PRES   REMARKS
GLASGOW        SUNNY     64  46  52 W18       29.70R
GLENDIVE       PTCLDY    70  52  53 W12       29.74R
JORDAN         PTCLDY    63  52  68 W8        29.77R
SIDNEY         PTCLDY    70  50  49 W16       29.69R
WOLF POINT     PTCLDY    63  52  68 SW12      29.69R
* BEAVER HILL  N/A       67  51  57 SW10       N/A
* CIRCLE       N/A       59  52  78 S1         N/A
* LINDSAY DVD  N/A       67  47  49 W11G16     N/A
* NAVAJO       N/A       63  47  56 W19G33     N/A
* SACO         N/A       64  50  61 SW12       N/A
$$

MTZ028>042-056>058-191600-
SOUTHCENTRAL AND SOUTHEAST MONTANA
CITY           SKY/WX    TMP DP  RH WIND       PRES   REMARKS
BAKER          PTCLDY    66  54  65 W13       29.79R
BILLINGS       PTCLDY    61  52  72 SW12      29.89R
LIVINGSTON     PTCLDY    61  46  58 W12       29.96S
MILES CITY     PTSUNNY   66  52  61 W10       29.79R
* LAUREL APT   PTCLDY    57  48  72 N/A        N/A
* ROUNDUP APT  PTCLDY    63  45  52 SW11G16    N/A
* ALZADA       N/A       66  56  70 SW9        N/A
* HYSHAM       N/A       63  50  63 W4G9       N/A
* LAME DEER    N/A       63  48  58 W8         N/A
* REED POINT   N/A       62  46  56 W11        N/A
* ROSCOE HILL  N/A       66  33  29 S2         N/A
$$

REGIONAL REPORTS...DAKOTAS
CITY           SKY/WX    TMP DP  RH WIND       PRES   REMARKS
WILLISTON      SUNNY     68  48  49 W17G24    29.63R
DICKINSON      PTSUNNY   64  54  70 W14       29.69R
BEACH          N/A       66  54  65 W13       29.75R
CROSBY         SUNNY     68  48  49 W18G24    29.59R
TIOGA          SUNNY     66  48  52 W16       29.64R
WATFORD CITY   SUNNY     68  48  49 W14G20    29.64R
BISMARCK       PTSUNNY   72  61  68 SW13      29.62R
GRAND FORKS    CLOUDY    66  61  84 S15       29.52F
FARGO          LGT RAIN  64  59  84 S14       29.63R
RAPID CITY     CLOUDY    70  54  57 CALM      29.83R
$$

REGIONAL REPORTS...WYOMING/IDAHO/WASHINGTON
CITY           SKY/WX    TMP DP  RH WIND       PRES   REMARKS
GILLETTE       PTSUNNY   64  52  65 W13       29.91R
SHERIDAN       PTCLDY    64  52  65 SW5       29.91R
CODY           SUNNY    N/A N/A N/A N/A        N/A
YELLOWSTONE LA SUNNY     48  45  89 CALM      30.21R
SALMON         PTCLDY    46  43  89 CALM      30.09R
MULLAN PASS    CLOUDY    45  45 100 VRB6      30.11S
SAND POINT     CLOUDY    59  50  72 SW6       30.00R
SPOKANE        PTSUNNY   55  50  83 S9        30.02R

$$




USA.gov is the U.S. government's official web portal to all federal, state and local government web resources and services.